Time,TemperatureF,DewpointF,PressureIn,WindDirection,WindDirectionDegrees,WindSpeedMPH,WindSpeedGustMPH,Humidity,HourlyPrecipIn,Conditions,Clouds,dailyrainin,SolarRadiationWatts/m^2,SoftwareType,DateUTC
2013-12-28 00:00:00,37.1,27.9,30.09,SSW,209,14.0,14.0,69,0.00,,,0.00,0,Wunderground v.1.15,2013-12-28 06:00:00,
2013-12-28 00:05:00,37.0,28.1,30.09,SSW,209,12.0,14.0,70,0.00,,,0.00,0,Wunderground v.1.15,2013-12-28 06:05:00,
2013-12-28 00:10:00,36.9,28.0,30.09,SSW,207,13.0,13.0,70,0.00,,,0.00,0,Wunderground v.1.15,2013-12-28 06:10:00,
2013-12-28 00:15:00,36.9,28.0,30.09,SSW,211,17.0,17.0,70,0.00,,,0.00,0,Wunderground v.1.15,2013-12-28 06:15:00,
2013-12-28 00:20:00,37.0,28.1,30.09,SW,215,11.0,13.0,70,0.00,,,0.00,0,Wunderground v.1.15,2013-12-28 06:20:00,
2013-12-28 00:25:00,37.1,28.2,30.09,SSW,208,11.0,14.0,70,0.00,,,0.00,0,Wunderground v.1.15,2013-12-28 06:25:00,
2013-12-28 00:30:00,37.1,28.2,30.09,SSW,211,13.0,13.0,70,0.00,,,0.00,0,Wunderground v.1.15,2013-12-28 06:30:00,
2013-12-28 00:35:00,37.0,28.1,30.09,SW,217,12.0,13.0,70,0.00,,,0.00,0,Wunderground v.1.15,2013-12-28 06:35:00,
2013-12-28 00:41:00,36.9,28.0,30.08,SSW,207,11.0,12.0,70,0.00,,,0.00,0,Wunderground v.1.15,2013-12-28 06:41:00,
2013-12-28 00:46:00,36.7,27.8,30.08,SSW,211,11.0,13.0,70,0.00,,,0.00,0,Wunderground v.1.15,2013-12-28 06:46:00,
2013-12-28 00:51:00,36.6,27.7,30.08,SSW,209,10.0,11.0,70,0.00,,,0.00,0,Wunderground v.1.15,2013-12-28 06:51:00,
2013-12-28 00:56:00,36.8,27.9,30.08,SSW,211,10.0,11.0,70,0.00,,,0.00,0,Wunderground v.1.15,2013-12-28 06:56:00,
2013-12-28 01:02:00,36.8,27.9,30.08,SSW,211,9.0,11.0,70,0.00,,,0.00,0,Wunderground v.1.15,2013-12-28 07:02:00,
2013-12-28 01:07:00,36.8,27.9,30.08,SSW,209,9.0,11.0,70,0.00,,,0.00,0,Wunderground v.1.15,2013-12-28 07:07:00,
2013-12-28 01:12:00,36.7,27.5,30.07,SSW,209,8.0,10.0,69,0.00,,,0.00,0,Wunderground v.1.15,2013-12-28 07:12:00,
2013-12-28 01:17:00,36.4,27.2,30.07,SSW,205,7.0,10.0,69,0.00,,,0.00,0,Wunderground v.1.15,2013-12-28 07:17:00,
2013-12-28 01:23:00,36.0,27.2,30.07,SSW,198,8.0,9.0,70,0.00,,,0.00,0,Wunderground v.1.15,2013-12-28 07:23:00,
2013-12-28 01:28:00,35.6,26.8,30.07,SSW,205,9.0,9.0,70,0.00,,,0.00,0,Wunderground v.1.15,2013-12-28 07:28:00,
2013-12-28 01:33:00,35.2,26.7,30.07,SSW,203,9.0,9.0,71,0.00,,,0.00,0,Wunderground v.1.15,2013-12-28 07:33:00,
2013-12-28 01:38:00,35.0,26.9,30.07,SSW,202,7.0,9.0,72,0.00,,,0.00,0,Wunderground v.1.15,2013-12-28 07:38:00,
2013-12-28 01:43:00,34.9,26.8,30.07,SSW,200,8.0,9.0,72,0.00,,,0.00,0,Wunderground v.1.15,2013-12-28 07:43:00,
2013-12-28 01:48:00,34.7,26.6,30.07,SSW,201,10.0,10.0,72,0.00,,,0.00,0,Wunderground v.1.15,2013-12-28 07:48:00,
2013-12-28 01:53:00,34.8,26.7,30.06,SSW,200,11.0,11.0,72,0.00,,,0.00,0,Wunderground v.1.15,2013-12-28 07:53:00,
2013-12-28 01:58:00,34.9,26.8,30.06,SSW,194,12.0,12.0,72,0.00,,,0.00,0,Wunderground v.1.15,2013-12-28 07:58:00,
2013-12-28 02:03:00,35.0,26.9,30.06,SSW,205,11.0,13.0,72,0.00,,,0.00,0,Wunderground v.1.15,2013-12-28 08:03:00,
2013-12-28 02:08:00,35.0,26.9,30.06,SSW,202,11.0,13.0,72,0.00,,,0.00,0,Wunderground v.1.15,2013-12-28 08:08:00,
2013-12-28 02:13:00,35.1,27.0,30.06,SSW,205,13.0,14.0,72,0.00,,,0.00,0,Wunderground v.1.15,2013-12-28 08:13:00,
2013-12-28 02:18:00,35.3,27.2,30.06,SSW,202,14.0,15.0,72,0.00,,,0.00,0,Wunderground v.1.15,2013-12-28 08:18:00,
2013-12-28 02:23:00,35.5,27.0,30.06,SSW,196,14.0,16.0,71,0.00,,,0.00,0,Wunderground v.1.15,2013-12-28 08:23:00,
2013-12-28 02:28:00,35.6,27.1,30.06,SSW,207,12.0,16.0,71,0.00,,,0.00,0,Wunderground v.1.15,2013-12-28 08:28:00,
2013-12-28 02:33:00,35.9,27.1,30.06,SSW,202,12.0,17.0,70,0.00,,,0.00,0,Wunderground v.1.15,2013-12-28 08:33:00,
2013-12-28 02:38:00,36.3,27.4,30.06,SSW,207,13.0,17.0,70,0.00,,,0.00,0,Wunderground v.1.15,2013-12-28 08:38:00,
2013-12-28 02:43:00,36.4,27.2,30.06,SSW,205,14.0,15.0,69,0.00,,,0.00,0,Wunderground v.1.15,2013-12-28 08:43:00,
2013-12-28 02:48:00,36.0,26.8,30.06,SSW,200,10.0,15.0,69,0.00,,,0.00,0,Wunderground v.1.15,2013-12-28 08:48:00,
2013-12-28 02:53:00,35.6,26.8,30.05,SSW,198,9.0,12.0,70,0.00,,,0.00,0,Wunderground v.1.15,2013-12-28 08:53:00,
2013-12-28 02:58:00,35.0,26.2,30.05,SSW,207,11.0,12.0,70,0.00,,,0.00,0,Wunderground v.1.15,2013-12-28 08:58:00,
2013-12-28 03:03:00,34.7,26.6,30.05,SSW,213,13.0,13.0,72,0.00,,,0.00,0,Wunderground v.1.15,2013-12-28 09:03:00,
2013-12-28 03:08:00,34.8,26.7,30.05,SSW,200,9.0,14.0,72,0.00,,,0.00,0,Wunderground v.1.15,2013-12-28 09:08:00,
2013-12-28 03:13:00,34.3,25.9,30.05,SSW,200,11.0,11.0,71,0.00,,,0.00,0,Wunderground v.1.15,2013-12-28 09:13:00,
2013-12-28 03:18:00,33.5,25.4,30.04,SSW,200,11.0,12.0,72,0.00,,,0.00,0,Wunderground v.1.15,2013-12-28 09:18:00,
2013-12-28 03:23:00,33.2,25.8,30.04,SSW,204,12.0,13.0,74,0.00,,,0.00,0,Wunderground v.1.15,2013-12-28 09:23:00,
2013-12-28 03:28:00,33.4,26.6,30.04,SSW,201,12.0,14.0,76,0.00,,,0.00,0,Wunderground v.1.15,2013-12-28 09:28:00,
2013-12-28 03:33:00,33.9,26.8,30.04,SSW,205,10.0,13.0,75,0.00,,,0.00,0,Wunderground v.1.15,2013-12-28 09:33:00,
2013-12-28 03:38:00,34.1,26.7,30.03,SSW,204,10.0,13.0,74,0.00,,,0.00,0,Wunderground v.1.15,2013-12-28 09:38:00,
2013-12-28 03:43:00,34.4,27.0,30.03,SSW,209,12.0,13.0,74,0.00,,,0.00,0,Wunderground v.1.15,2013-12-28 09:43:00,
2013-12-28 03:48:00,34.5,27.1,30.03,SSW,193,12.0,14.0,74,0.00,,,0.00,0,Wunderground v.1.15,2013-12-28 09:48:00,
2013-12-28 03:53:00,34.4,26.6,30.03,SSW,197,10.0,13.0,73,0.00,,,0.00,0,Wunderground v.1.15,2013-12-28 09:53:00,
2013-12-28 03:58:00,33.8,26.1,30.02,SSW,202,10.0,13.0,73,0.00,,,0.00,0,Wunderground v.1.15,2013-12-28 09:58:00,
2013-12-28 04:03:00,33.2,25.8,30.02,SSW,200,11.0,12.0,74,0.00,,,0.00,0,Wunderground v.1.15,2013-12-28 10:03:00,
2013-12-28 04:08:00,32.7,26.0,30.02,SSW,196,10.0,14.0,76,0.00,,,0.00,0,Wunderground v.1.15,2013-12-28 10:08:00,
2013-12-28 04:13:00,32.4,26.0,30.02,SSW,204,14.0,14.0,77,0.00,,,0.00,0,Wunderground v.1.15,2013-12-28 10:13:00,
2013-12-28 04:18:00,32.4,26.3,30.02,SSW,198,12.0,14.0,78,0.00,,,0.00,0,Wunderground v.1.15,2013-12-28 10:18:00,
2013-12-28 04:24:00,32.3,25.9,30.01,SSW,196,11.0,12.0,77,0.00,,,0.00,0,Wunderground v.1.15,2013-12-28 10:24:00,
2013-12-28 04:29:00,32.1,25.7,30.01,SSW,194,11.0,13.0,77,0.00,,,0.00,0,Wunderground v.1.15,2013-12-28 10:29:00,
2013-12-28 04:34:00,31.8,25.7,30.01,SSW,194,9.0,13.0,78,0.00,,,0.00,0,Wunderground v.1.15,2013-12-28 10:34:00,
2013-12-28 04:39:00,31.6,25.5,30.01,SSW,201,11.0,13.0,78,0.00,,,0.00,0,Wunderground v.1.15,2013-12-28 10:39:00,
2013-12-28 04:44:00,31.4,25.3,30.00,SSW,196,11.0,12.0,78,0.00,,,0.00,0,Wunderground v.1.15,2013-12-28 10:44:00,
2013-12-28 04:49:00,31.1,25.3,30.00,SSW,198,10.0,12.0,79,0.00,,,0.00,0,Wunderground v.1.15,2013-12-28 10:49:00,
2013-12-28 04:54:00,30.8,25.1,30.00,SSW,197,11.0,11.0,79,0.00,,,0.00,0,Wunderground v.1.15,2013-12-28 10:54:00,
2013-12-28 04:59:00,30.6,25.2,30.00,SSW,198,10.0,11.0,80,0.00,,,0.00,0,Wunderground v.1.15,2013-12-28 10:59:00,
2013-12-28 05:02:00,30.4,25.0,30.00,SSW,198,10.0,12.0,80,0.00,,,0.00,0,Wunderground v.1.15,2013-12-28 11:02:00,
2013-12-28 05:07:00,30.4,25.3,29.99,SSW,195,12.0,13.0,81,0.00,,,0.00,0,Wunderground v.1.15,2013-12-28 11:07:00,
2013-12-28 05:13:00,30.8,26.0,29.99,SSW,194,13.0,16.0,82,0.00,,,0.00,0,Wunderground v.1.15,2013-12-28 11:13:00,
2013-12-28 05:18:00,31.2,26.3,29.99,SSW,198,13.0,16.0,82,0.00,,,0.00,0,Wunderground v.1.15,2013-12-28 11:18:00,
2013-12-28 05:23:00,31.4,26.2,29.98,SSW,194,15.0,15.0,81,0.00,,,0.00,0,Wunderground v.1.15,2013-12-28 11:23:00,
2013-12-28 05:28:00,31.4,26.2,29.98,SSW,201,14.0,16.0,81,0.00,,,0.00,0,Wunderground v.1.15,2013-12-28 11:28:00,
2013-12-28 05:33:00,31.5,26.3,29.98,SSW,198,14.0,16.0,81,0.00,,,0.00,0,Wunderground v.1.15,2013-12-28 11:33:00,
2013-12-28 05:38:00,31.5,26.3,29.98,SSW,195,17.0,17.0,81,0.00,,,0.00,0,Wunderground v.1.15,2013-12-28 11:38:00,
2013-12-28 05:43:00,31.6,26.4,29.98,SSW,202,14.0,16.0,81,0.00,,,0.00,0,Wunderground v.1.15,2013-12-28 11:43:00,
2013-12-28 05:48:00,31.8,26.6,29.98,SSW,200,14.0,17.0,81,0.00,,,0.00,0,Wunderground v.1.15,2013-12-28 11:48:00,
2013-12-28 05:53:00,32.0,26.8,29.98,SSW,192,14.0,16.0,81,0.00,,,0.00,0,Wunderground v.1.15,2013-12-28 11:53:00,
2013-12-28 05:58:00,31.9,26.4,29.98,SSW,201,14.0,17.0,80,0.00,,,0.00,0,Wunderground v.1.15,2013-12-28 11:58:00,
2013-12-28 06:03:00,31.9,26.4,29.98,SSW,199,12.0,14.0,80,0.00,,,0.00,0,Wunderground v.1.15,2013-12-28 12:03:00,
2013-12-28 06:08:00,31.7,26.2,29.97,SSW,198,13.0,14.0,80,0.00,,,0.00,0,Wunderground v.1.15,2013-12-28 12:08:00,
2013-12-28 06:13:00,31.4,25.9,29.98,SSW,196,12.0,14.0,80,0.00,,,0.00,0,Wunderground v.1.15,2013-12-28 12:13:00,
2013-12-28 06:18:00,31.1,25.7,29.97,SSW,203,11.0,14.0,80,0.00,,,0.00,0,Wunderground v.1.15,2013-12-28 12:18:00,
2013-12-28 06:23:00,30.8,25.7,29.97,SSW,197,10.0,13.0,81,0.00,,,0.00,0,Wunderground v.1.15,2013-12-28 12:23:00,
2013-12-28 06:28:00,30.7,25.6,29.97,SSW,195,13.0,14.0,81,0.00,,,0.00,0,Wunderground v.1.15,2013-12-28 12:28:00,
2013-12-28 06:33:00,30.7,25.9,29.97,SSW,198,13.0,14.0,82,0.00,,,0.00,0,Wunderground v.1.15,2013-12-28 12:33:00,
2013-12-28 06:38:00,30.9,26.1,29.97,SSW,199,13.0,16.0,82,0.00,,,0.00,0,Wunderground v.1.15,2013-12-28 12:38:00,
2013-12-28 06:43:00,31.0,26.1,29.96,SSW,206,13.0,14.0,82,0.00,,,0.00,0,Wunderground v.1.15,2013-12-28 12:43:00,
2013-12-28 06:48:00,31.0,26.1,29.97,SSW,194,11.0,14.0,82,0.00,,,0.00,0,Wunderground v.1.15,2013-12-28 12:48:00,
2013-12-28 06:53:00,30.8,26.0,29.97,SSW,196,11.0,14.0,82,0.00,,,0.00,0,Wunderground v.1.15,2013-12-28 12:53:00,
2013-12-28 06:58:00,30.8,26.0,29.97,SSW,194,10.0,14.0,82,0.00,,,0.00,0,Wunderground v.1.15,2013-12-28 12:58:00,
2013-12-28 07:03:00,30.8,26.0,29.96,SSW,202,12.0,14.0,82,0.00,,,0.00,0,Wunderground v.1.15,2013-12-28 13:03:00,
2013-12-28 07:08:00,30.9,26.1,29.96,SSW,196,11.0,14.0,82,0.00,,,0.00,0,Wunderground v.1.15,2013-12-28 13:08:00,
2013-12-28 07:13:00,31.0,26.1,29.97,SSW,199,12.0,14.0,82,0.00,,,0.00,0,Wunderground v.1.15,2013-12-28 13:13:00,
2013-12-28 07:18:00,31.1,26.2,29.96,SSW,201,12.0,14.0,82,0.00,,,0.00,0,Wunderground v.1.15,2013-12-28 13:18:00,
2013-12-28 07:23:00,31.2,26.0,29.96,SSW,194,11.0,14.0,81,0.00,,,0.00,0,Wunderground v.1.15,2013-12-28 13:23:00,
2013-12-28 07:28:00,31.1,26.0,29.96,South,190,12.0,15.0,81,0.00,,,0.00,0,Wunderground v.1.15,2013-12-28 13:28:00,
2013-12-28 07:33:00,31.0,25.9,29.96,SSW,199,12.0,14.0,81,0.00,,,0.00,0,Wunderground v.1.15,2013-12-28 13:33:00,
2013-12-28 07:38:00,30.7,25.6,29.95,SSW,197,12.0,15.0,81,0.00,,,0.00,0,Wunderground v.1.15,2013-12-28 13:38:00,
2013-12-28 07:43:00,30.6,25.8,29.95,SSW,197,12.0,15.0,82,0.00,,,0.00,0,Wunderground v.1.15,2013-12-28 13:43:00,
2013-12-28 07:48:00,30.5,25.7,29.95,SSW,199,13.0,15.0,82,0.00,,,0.00,5,Wunderground v.1.15,2013-12-28 13:48:00,
2013-12-28 07:53:00,30.4,25.6,29.95,SSW,198,13.0,16.0,82,0.00,,,0.00,7,Wunderground v.1.15,2013-12-28 13:53:00,
2013-12-28 07:58:00,30.3,25.8,29.95,SSW,201,11.0,16.0,83,0.00,,,0.00,11,Wunderground v.1.15,2013-12-28 13:58:00,
2013-12-28 08:03:00,30.3,25.8,29.95,SSW,207,11.0,13.0,83,0.00,,,0.00,12,Wunderground v.1.15,2013-12-28 14:03:00,
2013-12-28 08:08:00,30.6,26.1,29.95,SSW,207,10.0,13.0,83,0.00,,,0.00,14,Wunderground v.1.15,2013-12-28 14:08:00,
2013-12-28 08:13:00,30.8,26.2,29.95,SSW,205,11.0,14.0,83,0.00,,,0.00,19,Wunderground v.1.15,2013-12-28 14:13:00,
2013-12-28 08:18:00,31.2,26.6,29.94,SSW,207,12.0,15.0,83,0.00,,,0.00,28,Wunderground v.1.15,2013-12-28 14:18:00,
2013-12-28 08:23:00,31.7,26.8,29.94,SSW,209,14.0,16.0,82,0.00,,,0.00,37,Wunderground v.1.15,2013-12-28 14:23:00,
2013-12-28 08:28:00,32.2,27.3,29.94,SSW,202,17.0,20.0,82,0.00,,,0.00,47,Wunderground v.1.15,2013-12-28 14:28:00,
2013-12-28 08:33:00,32.8,27.6,29.94,SSW,207,16.0,19.0,81,0.00,,,0.00,60,Wunderground v.1.15,2013-12-28 14:33:00,
2013-12-28 08:38:00,33.3,27.8,29.94,SSW,205,15.0,19.0,80,0.00,,,0.00,72,Wunderground v.1.15,2013-12-28 14:38:00,
2013-12-28 08:43:00,33.8,28.0,29.94,SSW,213,12.0,18.0,79,0.00,,,0.00,84,Wunderground v.1.15,2013-12-28 14:43:00,
2013-12-28 08:48:00,34.3,28.2,29.94,SSW,197,14.0,20.0,78,0.00,,,0.00,100,Wunderground v.1.15,2013-12-28 14:48:00,
2013-12-28 08:53:00,35.0,28.5,29.94,SSW,202,15.0,18.0,77,0.00,,,0.00,116,Wunderground v.1.15,2013-12-28 14:53:00,
2013-12-28 08:58:00,35.6,28.8,29.94,SSW,205,17.0,19.0,76,0.00,,,0.00,132,Wunderground v.1.15,2013-12-28 14:58:00,
2013-12-28 09:03:00,36.1,28.9,29.94,SSW,192,17.0,20.0,75,0.00,,,0.00,149,Wunderground v.1.15,2013-12-28 15:03:00,
2013-12-28 09:08:00,36.3,28.8,29.94,SSW,196,19.0,21.0,74,0.00,,,0.00,165,Wunderground v.1.15,2013-12-28 15:08:00,
2013-12-28 09:13:00,36.4,28.9,29.94,SSW,193,17.0,20.0,74,0.00,,,0.00,179,Wunderground v.1.15,2013-12-28 15:13:00,
2013-12-28 09:18:00,36.6,29.1,29.94,SSW,201,20.0,23.0,74,0.00,,,0.00,195,Wunderground v.1.15,2013-12-28 15:18:00,
2013-12-28 09:23:00,36.8,29.3,29.94,SSW,213,16.0,20.0,74,0.00,,,0.00,213,Wunderground v.1.15,2013-12-28 15:23:00,
2013-12-28 09:28:00,37.1,29.6,29.93,SSW,196,18.0,20.0,74,0.00,,,0.00,227,Wunderground v.1.15,2013-12-28 15:28:00,
2013-12-28 09:33:00,37.6,29.4,29.93,SSW,198,19.0,22.0,72,0.00,,,0.00,241,Wunderground v.1.15,2013-12-28 15:33:00,
2013-12-28 09:38:00,38.1,30.2,29.93,SSW,201,17.0,22.0,73,0.00,,,0.00,253,Wunderground v.1.15,2013-12-28 15:38:00,
2013-12-28 09:43:00,38.6,30.0,29.93,SSW,200,13.0,22.0,71,0.00,,,0.00,265,Wunderground v.1.15,2013-12-28 15:43:00,
2013-12-28 09:49:00,39.1,30.1,29.93,SSW,197,20.0,22.0,70,0.00,,,0.00,278,Wunderground v.1.15,2013-12-28 15:49:00,
2013-12-28 09:54:00,39.6,30.3,29.93,SSW,210,19.0,19.0,69,0.00,,,0.00,288,Wunderground v.1.15,2013-12-28 15:54:00,
2013-12-28 09:59:00,40.2,30.5,29.93,SSW,213,17.0,21.0,68,0.00,,,0.00,301,Wunderground v.1.15,2013-12-28 15:59:00,
2013-12-28 10:04:00,40.7,30.6,29.93,SSW,192,18.0,24.0,67,0.00,,,0.00,311,Wunderground v.1.15,2013-12-28 16:04:00,
2013-12-28 10:09:00,41.1,30.6,29.93,SSW,208,16.0,25.0,66,0.00,,,0.00,322,Wunderground v.1.15,2013-12-28 16:09:00,
2013-12-28 10:14:00,41.4,30.5,29.92,SSW,202,22.0,25.0,65,0.00,,,0.00,332,Wunderground v.1.15,2013-12-28 16:14:00,
2013-12-28 10:19:00,41.8,30.9,29.92,SSW,199,16.0,25.0,65,0.00,,,0.00,343,Wunderground v.1.15,2013-12-28 16:19:00,
2013-12-28 10:24:00,42.2,30.9,29.92,SSW,203,17.0,24.0,64,0.00,,,0.00,353,Wunderground v.1.15,2013-12-28 16:24:00,
2013-12-28 10:29:00,42.6,31.3,29.92,SSW,192,15.0,24.0,64,0.00,,,0.00,362,Wunderground v.1.15,2013-12-28 16:29:00,
2013-12-28 10:34:00,43.1,31.4,29.92,SSW,202,20.0,20.0,63,0.00,,,0.00,371,Wunderground v.1.15,2013-12-28 16:34:00,
2013-12-28 10:39:00,43.7,31.1,29.92,SSW,212,18.0,21.0,61,0.00,,,0.00,380,Wunderground v.1.15,2013-12-28 16:39:00,
2013-12-28 10:44:00,44.3,31.3,29.92,SSW,207,18.0,21.0,60,0.00,,,0.00,388,Wunderground v.1.15,2013-12-28 16:44:00,
2013-12-28 10:49:00,44.9,31.0,29.92,SSW,204,15.0,21.0,58,0.00,,,0.00,399,Wunderground v.1.15,2013-12-28 16:49:00,
2013-12-28 10:54:00,45.5,31.1,29.92,South,189,10.0,17.0,57,0.00,,,0.00,404,Wunderground v.1.15,2013-12-28 16:54:00,
2013-12-28 10:59:00,46.1,31.3,29.91,South,188,13.0,17.0,56,0.00,,,0.00,413,Wunderground v.1.15,2013-12-28 16:59:00,
2013-12-28 11:04:00,47.0,31.2,29.91,SSW,202,13.0,16.0,54,0.00,,,0.00,420,Wunderground v.1.15,2013-12-28 17:04:00,
2013-12-28 11:09:00,47.8,31.0,29.91,SSW,199,13.0,16.0,52,0.00,,,0.00,427,Wunderground v.1.15,2013-12-28 17:09:00,
2013-12-28 11:14:00,48.5,31.2,29.91,SSW,193,15.0,17.0,51,0.00,,,0.00,434,Wunderground v.1.15,2013-12-28 17:14:00,
2013-12-28 11:19:00,48.9,30.6,29.90,SSE,167,10.0,20.0,49,0.00,,,0.00,439,Wunderground v.1.15,2013-12-28 17:19:00,
2013-12-28 11:24:00,49.1,30.7,29.90,South,188,17.0,17.0,49,0.00,,,0.00,443,Wunderground v.1.15,2013-12-28 17:24:00,
2013-12-28 11:30:00,49.6,30.7,29.89,South,187,11.0,13.0,48,0.00,,,0.00,450,Wunderground v.1.15,2013-12-28 17:30:00,
2013-12-28 11:35:00,49.9,29.9,29.89,SSW,201,12.0,18.0,46,0.00,,,0.00,455,Wunderground v.1.15,2013-12-28 17:35:00,
2013-12-28 11:40:00,50.6,29.5,29.89,SSW,200,12.0,19.0,44,0.00,,,0.00,461,Wunderground v.1.15,2013-12-28 17:40:00,
2013-12-28 11:46:00,51.4,29.1,29.88,SSW,196,11.0,20.0,42,0.00,,,0.00,464,Wunderground v.1.15,2013-12-28 17:46:00,
2013-12-28 11:51:00,52.0,29.0,29.88,South,187,14.0,22.0,41,0.00,,,0.00,469,Wunderground v.1.15,2013-12-28 17:51:00,
2013-12-28 11:56:00,52.5,28.8,29.87,SSW,210,19.0,25.0,40,0.00,,,0.00,473,Wunderground v.1.15,2013-12-28 17:56:00,
2013-12-28 12:01:00,52.9,29.8,29.87,South,184,15.0,18.0,41,0.00,,,0.00,475,Wunderground v.1.15,2013-12-28 18:01:00,
2013-12-28 12:06:00,53.2,29.5,29.86,SW,220,12.0,22.0,40,0.00,,,0.00,478,Wunderground v.1.15,2013-12-28 18:06:00,
2013-12-28 12:11:00,53.6,29.2,29.86,SSW,200,15.0,20.0,39,0.00,,,0.00,480,Wunderground v.1.15,2013-12-28 18:11:00,
2013-12-28 12:16:00,53.9,28.8,29.85,South,186,13.0,23.0,38,0.00,,,0.00,482,Wunderground v.1.15,2013-12-28 18:16:00,
2013-12-28 12:21:00,54.1,29.0,29.85,SSW,205,19.0,21.0,38,0.00,,,0.00,483,Wunderground v.1.15,2013-12-28 18:21:00,
2013-12-28 12:26:00,54.3,27.9,29.85,SW,215,26.0,26.0,36,0.00,,,0.00,483,Wunderground v.1.15,2013-12-28 18:26:00,
2013-12-28 12:31:00,54.6,28.2,29.85,SSW,200,16.0,21.0,36,0.00,,,0.00,483,Wunderground v.1.15,2013-12-28 18:31:00,
2013-12-28 12:37:00,55.2,28.0,29.84,SSW,205,20.0,25.0,35,0.00,,,0.00,485,Wunderground v.1.15,2013-12-28 18:37:00,
2013-12-28 12:42:00,55.5,27.6,29.84,SSW,211,18.0,27.0,34,0.00,,,0.00,485,Wunderground v.1.15,2013-12-28 18:42:00,
2013-12-28 12:47:00,55.7,27.7,29.84,SSW,212,21.0,28.0,34,0.00,,,0.00,482,Wunderground v.1.15,2013-12-28 18:47:00,
2013-12-28 12:52:00,56.0,28.0,29.84,SSW,197,23.0,25.0,34,0.00,,,0.00,482,Wunderground v.1.15,2013-12-28 18:52:00,
2013-12-28 12:58:00,55.9,27.9,29.83,SSW,198,20.0,25.0,34,0.00,,,0.00,480,Wunderground v.1.15,2013-12-28 18:58:00,
2013-12-28 13:03:00,55.9,27.2,29.83,SSW,205,21.0,25.0,33,0.00,,,0.00,480,Wunderground v.1.15,2013-12-28 19:03:00,
2013-12-28 13:08:00,55.9,28.6,29.83,SSW,200,21.0,25.0,35,0.00,,,0.00,476,Wunderground v.1.15,2013-12-28 19:08:00,
2013-12-28 13:13:00,55.5,28.3,29.83,SSW,206,20.0,24.0,35,0.00,,,0.00,473,Wunderground v.1.15,2013-12-28 19:13:00,
2013-12-28 13:18:00,55.2,28.7,29.82,SSW,213,23.0,24.0,36,0.00,,,0.00,469,Wunderground v.1.15,2013-12-28 19:18:00,
2013-12-28 13:23:00,55.1,27.9,29.82,South,190,16.0,26.0,35,0.00,,,0.00,464,Wunderground v.1.15,2013-12-28 19:23:00,
2013-12-28 13:28:00,55.3,28.1,29.82,SSW,201,24.0,26.0,35,0.00,,,0.00,461,Wunderground v.1.15,2013-12-28 19:28:00,
2013-12-28 13:33:00,55.3,28.8,29.81,South,191,13.0,24.0,36,0.00,,,0.00,455,Wunderground v.1.15,2013-12-28 19:33:00,
2013-12-28 13:38:00,55.4,28.2,29.81,SSW,193,17.0,24.0,35,0.00,,,0.00,450,Wunderground v.1.15,2013-12-28 19:38:00,
2013-12-28 13:43:00,55.5,28.3,29.81,SSW,196,13.0,21.0,35,0.00,,,0.00,445,Wunderground v.1.15,2013-12-28 19:43:00,
2013-12-28 13:48:00,55.7,28.4,29.80,SSW,196,18.0,23.0,35,0.00,,,0.00,441,Wunderground v.1.15,2013-12-28 19:48:00,
2013-12-28 13:53:00,55.8,28.5,29.80,SSW,196,11.0,21.0,35,0.00,,,0.00,434,Wunderground v.1.15,2013-12-28 19:53:00,
2013-12-28 13:58:00,55.8,28.5,29.80,SSW,194,21.0,22.0,35,0.00,,,0.00,427,Wunderground v.1.15,2013-12-28 19:58:00,
2013-12-28 14:03:00,55.8,28.5,29.80,SSW,195,13.0,23.0,35,0.00,,,0.00,420,Wunderground v.1.15,2013-12-28 20:03:00,
2013-12-28 14:08:00,55.9,28.6,29.80,SSW,193,15.0,23.0,35,0.00,,,0.00,413,Wunderground v.1.15,2013-12-28 20:08:00,
2013-12-28 14:13:00,55.8,28.5,29.80,SSW,193,20.0,22.0,35,0.00,,,0.00,406,Wunderground v.1.15,2013-12-28 20:13:00,
2013-12-28 14:18:00,55.8,28.5,29.80,SSW,196,17.0,22.0,35,0.00,,,0.00,399,Wunderground v.1.15,2013-12-28 20:18:00,
2013-12-28 14:23:00,55.7,28.4,29.80,SSW,202,22.0,22.0,35,0.00,,,0.00,390,Wunderground v.1.15,2013-12-28 20:23:00,
2013-12-28 14:29:00,55.7,27.7,29.79,SSW,206,16.0,23.0,34,0.00,,,0.00,381,Wunderground v.1.15,2013-12-28 20:29:00,
2013-12-28 14:34:00,55.7,29.1,29.80,SSW,192,14.0,17.0,36,0.00,,,0.00,371,Wunderground v.1.15,2013-12-28 20:34:00,
2013-12-28 14:39:00,55.6,28.4,29.80,SSW,202,14.0,18.0,35,0.00,,,0.00,364,Wunderground v.1.15,2013-12-28 20:39:00,
2013-12-28 14:44:00,55.4,28.9,29.80,SSW,199,17.0,17.0,36,0.00,,,0.00,355,Wunderground v.1.15,2013-12-28 20:44:00,
2013-12-28 14:49:00,55.1,29.3,29.80,SSW,194,15.0,21.0,37,0.00,,,0.00,345,Wunderground v.1.15,2013-12-28 20:49:00,
2013-12-28 14:54:00,54.6,28.8,29.79,South,181,14.0,19.0,37,0.00,,,0.00,336,Wunderground v.1.15,2013-12-28 20:54:00,
2013-12-28 14:59:00,54.4,29.3,29.79,SSW,194,18.0,19.0,38,0.00,,,0.00,323,Wunderground v.1.15,2013-12-28 20:59:00,
2013-12-28 15:04:00,54.3,29.2,29.80,SSW,202,13.0,17.0,38,0.00,,,0.00,313,Wunderground v.1.15,2013-12-28 21:04:00,
2013-12-28 15:09:00,54.0,28.9,29.79,South,187,13.0,19.0,38,0.00,,,0.00,302,Wunderground v.1.15,2013-12-28 21:09:00,
2013-12-28 15:14:00,53.7,28.7,29.79,SSW,195,12.0,19.0,38,0.00,,,0.00,294,Wunderground v.1.15,2013-12-28 21:14:00,
2013-12-28 15:19:00,53.5,29.1,29.78,SSW,200,11.0,20.0,39,0.00,,,0.00,279,Wunderground v.1.15,2013-12-28 21:19:00,
2013-12-28 15:24:00,53.2,28.9,29.78,South,187,14.0,18.0,39,0.00,,,0.00,269,Wunderground v.1.15,2013-12-28 21:24:00,
2013-12-28 15:29:00,52.9,28.6,29.78,SSW,197,14.0,20.0,39,0.00,,,0.00,255,Wunderground v.1.15,2013-12-28 21:29:00,
2013-12-28 15:34:00,52.8,29.1,29.78,SSW,200,12.0,18.0,40,0.00,,,0.00,239,Wunderground v.1.15,2013-12-28 21:34:00,
2013-12-28 15:39:00,52.5,28.8,29.78,SSW,202,17.0,21.0,40,0.00,,,0.00,223,Wunderground v.1.15,2013-12-28 21:39:00,
2013-12-28 15:44:00,52.4,28.8,29.78,SSW,192,14.0,21.0,40,0.00,,,0.00,207,Wunderground v.1.15,2013-12-28 21:44:00,
2013-12-28 15:49:00,52.2,28.6,29.78,SSW,202,17.0,22.0,40,0.00,,,0.00,190,Wunderground v.1.15,2013-12-28 21:49:00,
2013-12-28 15:54:00,51.9,28.9,29.78,SSW,196,18.0,25.0,41,0.00,,,0.00,172,Wunderground v.1.15,2013-12-28 21:54:00,
2013-12-28 15:59:00,51.6,28.6,29.78,South,181,15.0,25.0,41,0.00,,,0.00,156,Wunderground v.1.15,2013-12-28 21:59:00,
2013-12-28 16:04:00,51.1,28.8,29.78,South,186,18.0,18.0,42,0.00,,,0.00,139,Wunderground v.1.15,2013-12-28 22:04:00,
2013-12-28 16:09:00,50.5,28.8,29.78,South,188,17.0,19.0,43,0.00,,,0.00,125,Wunderground v.1.15,2013-12-28 22:09:00,
2013-12-28 16:14:00,50.0,28.9,29.78,South,191,18.0,20.0,44,0.00,,,0.00,109,Wunderground v.1.15,2013-12-28 22:14:00,
2013-12-28 16:19:00,49.5,28.5,29.78,SSW,192,12.0,20.0,44,0.00,,,0.00,93,Wunderground v.1.15,2013-12-28 22:19:00,
2013-12-28 16:24:00,49.1,28.7,29.79,SSW,205,9.0,15.0,45,0.00,,,0.00,79,Wunderground v.1.15,2013-12-28 22:24:00,
2013-12-28 16:29:00,48.7,28.3,29.79,SSW,200,15.0,18.0,45,0.00,,,0.00,63,Wunderground v.1.15,2013-12-28 22:29:00,
2013-12-28 16:34:00,48.1,28.3,29.79,SSW,197,13.0,16.0,46,0.00,,,0.00,51,Wunderground v.1.15,2013-12-28 22:34:00,
2013-12-28 16:39:00,47.5,28.3,29.80,SW,214,8.0,16.0,47,0.00,,,0.00,39,Wunderground v.1.15,2013-12-28 22:39:00,
2013-12-28 16:44:00,47.1,27.9,29.82,SW,220,8.0,11.0,47,0.00,,,0.00,30,Wunderground v.1.15,2013-12-28 22:44:00,
2013-12-28 16:49:00,46.8,27.6,29.82,SSW,213,7.0,11.0,47,0.00,,,0.00,23,Wunderground v.1.15,2013-12-28 22:49:00,
2013-12-28 16:54:00,46.0,27.4,29.82,SSW,200,6.0,10.0,48,0.00,,,0.00,16,Wunderground v.1.15,2013-12-28 22:54:00,
2013-12-28 16:59:00,45.2,27.2,29.82,SSW,193,8.0,10.0,49,0.00,,,0.00,11,Wunderground v.1.15,2013-12-28 22:59:00,
2013-12-28 17:04:00,44.3,26.8,29.82,SSW,194,8.0,10.0,50,0.00,,,0.00,9,Wunderground v.1.15,2013-12-28 23:04:00,
2013-12-28 17:09:00,43.4,26.5,29.83,SSW,202,7.0,10.0,51,0.00,,,0.00,5,Wunderground v.1.15,2013-12-28 23:09:00,
2013-12-28 17:14:00,42.3,25.4,29.83,SSW,196,7.0,8.0,51,0.00,,,0.00,0,Wunderground v.1.15,2013-12-28 23:14:00,
2013-12-28 17:19:00,41.2,25.3,29.83,SSW,197,7.0,8.0,53,0.00,,,0.00,0,Wunderground v.1.15,2013-12-28 23:19:00,
2013-12-28 17:24:00,40.1,24.8,29.83,SSW,198,7.0,7.0,54,0.00,,,0.00,0,Wunderground v.1.15,2013-12-28 23:24:00,
2013-12-28 17:29:00,39.3,24.5,29.83,SSW,198,4.0,7.0,55,0.00,,,0.00,0,Wunderground v.1.15,2013-12-28 23:29:00,
2013-12-28 17:34:00,38.8,24.4,29.84,SSW,198,0.0,6.0,56,0.00,,,0.00,0,Wunderground v.1.15,2013-12-28 23:34:00,
2013-12-28 17:39:00,38.5,24.6,29.84,SSW,198,0.0,6.0,57,0.00,,,0.00,0,Wunderground v.1.15,2013-12-28 23:39:00,
2013-12-28 17:44:00,38.3,24.8,29.84,SSW,198,2.0,3.0,58,0.00,,,0.00,0,Wunderground v.1.15,2013-12-28 23:44:00,
2013-12-28 17:49:00,37.9,24.8,29.84,SSW,198,2.0,3.0,59,0.00,,,0.00,0,Wunderground v.1.15,2013-12-28 23:49:00,
2013-12-28 17:54:00,37.5,24.5,29.84,SSW,198,3.0,3.0,59,0.00,,,0.00,0,Wunderground v.1.15,2013-12-28 23:54:00,
2013-12-28 17:59:00,37.0,24.0,29.84,SSW,210,5.0,5.0,59,0.00,,,0.00,0,Wunderground v.1.15,2013-12-28 23:59:00,
2013-12-28 18:04:00,36.5,23.9,29.84,SSW,211,3.0,5.0,60,0.00,,,0.00,0,Wunderground v.1.15,2013-12-29 00:04:00,
2013-12-28 18:09:00,36.1,23.5,29.85,SSW,211,0.0,5.0,60,0.00,,,0.00,0,Wunderground v.1.15,2013-12-29 00:09:00,
2013-12-28 18:14:00,35.3,23.2,29.85,South,186,0.0,3.0,61,0.00,,,0.00,0,Wunderground v.1.15,2013-12-29 00:14:00,
2013-12-28 18:20:00,35.0,24.4,29.85,South,189,2.0,2.0,65,0.00,,,0.00,0,Wunderground v.1.15,2013-12-29 00:20:00,
2013-12-28 18:25:00,35.6,26.8,29.87,SW,223,14.0,17.0,70,0.00,,,0.00,0,Wunderground v.1.15,2013-12-29 00:25:00,
2013-12-28 18:30:00,37.8,28.2,29.87,West,274,8.0,10.0,68,0.00,,,0.00,0,Wunderground v.1.15,2013-12-29 00:30:00,
2013-12-28 18:35:00,39.0,27.8,29.88,WNW,295,8.0,11.0,64,0.00,,,0.00,0,Wunderground v.1.15,2013-12-29 00:35:00,
2013-12-28 18:40:00,38.5,26.6,29.89,WNW,298,12.0,12.0,62,0.00,,,0.00,0,Wunderground v.1.15,2013-12-29 00:40:00,
2013-12-28 18:45:00,37.2,25.0,29.90,West,276,12.0,15.0,61,0.00,,,0.00,0,Wunderground v.1.15,2013-12-29 00:45:00,
2013-12-28 18:50:00,36.7,25.7,29.90,WNW,298,16.0,16.0,64,0.00,,,0.00,0,Wunderground v.1.15,2013-12-29 00:50:00,
2013-12-28 18:55:00,38.2,28.2,29.90,WNW,294,14.0,17.0,67,0.00,,,0.00,0,Wunderground v.1.15,2013-12-29 00:55:00,
2013-12-28 19:01:00,40.0,28.4,29.91,NNW,340,17.0,17.0,63,0.00,,,0.00,0,Wunderground v.1.15,2013-12-29 01:01:00,
2013-12-28 19:06:00,40.8,28.8,29.91,NNW,345,12.0,21.0,62,0.00,,,0.00,0,Wunderground v.1.15,2013-12-29 01:06:00,
2013-12-28 19:11:00,40.9,29.3,29.92,North,351,13.0,15.0,63,0.00,,,0.00,0,Wunderground v.1.15,2013-12-29 01:11:00,
2013-12-28 19:16:00,40.8,29.6,29.92,North,355,13.0,17.0,64,0.00,,,0.00,0,Wunderground v.1.15,2013-12-29 01:16:00,
2013-12-28 19:21:00,40.8,29.6,29.93,NNW,347,10.0,13.0,64,0.00,,,0.00,0,Wunderground v.1.15,2013-12-29 01:21:00,
2013-12-28 19:26:00,40.5,29.7,29.93,North,355,29.0,29.0,65,0.00,,,0.00,0,Wunderground v.1.15,2013-12-29 01:26:00,
2013-12-28 19:31:00,41.1,30.6,29.93,North,355,25.0,25.0,66,0.00,,,0.00,0,Wunderground v.1.15,2013-12-29 01:31:00,
2013-12-28 19:36:00,41.5,30.6,29.93,North,5,21.0,31.0,65,0.00,,,0.00,0,Wunderground v.1.15,2013-12-29 01:36:00,
2013-12-28 19:41:00,41.6,30.7,29.93,North,355,22.0,26.0,65,0.00,,,0.00,0,Wunderground v.1.15,2013-12-29 01:41:00,
2013-12-28 19:46:00,41.3,30.4,29.95,North,355,18.0,26.0,65,0.00,,,0.00,0,Wunderground v.1.15,2013-12-29 01:46:00,
2013-12-28 19:51:00,40.7,30.2,29.95,NNW,346,13.0,20.0,66,0.00,,,0.00,0,Wunderground v.1.15,2013-12-29 01:51:00,
2013-12-28 19:56:00,40.1,29.6,29.96,NNW,343,9.0,20.0,66,0.00,,,0.00,0,Wunderground v.1.15,2013-12-29 01:56:00,
2013-12-28 20:01:00,39.3,29.3,29.96,NNW,348,14.0,16.0,67,0.00,,,0.00,0,Wunderground v.1.15,2013-12-29 02:01:00,
2013-12-28 20:06:00,38.9,29.6,29.96,North,355,11.0,19.0,69,0.00,,,0.00,0,Wunderground v.1.15,2013-12-29 02:06:00,
2013-12-28 20:11:00,38.5,29.6,29.96,NNW,345,22.0,22.0,70,0.00,,,0.00,0,Wunderground v.1.15,2013-12-29 02:11:00,
2013-12-28 20:16:00,38.7,30.1,29.96,North,9,14.0,22.0,71,0.00,,,0.00,0,Wunderground v.1.15,2013-12-29 02:16:00,
2013-12-28 20:21:00,38.9,30.3,29.96,North,355,16.0,18.0,71,0.00,,,0.00,0,Wunderground v.1.15,2013-12-29 02:21:00,
2013-12-28 20:26:00,39.1,30.8,29.97,NNW,346,13.0,18.0,72,0.00,,,0.00,0,Wunderground v.1.15,2013-12-29 02:26:00,
2013-12-28 20:32:00,39.4,31.1,29.97,NNW,347,15.0,19.0,72,0.00,,,0.00,0,Wunderground v.1.15,2013-12-29 02:32:00,
2013-12-28 20:37:00,39.7,31.4,29.98,NNW,345,16.0,21.0,72,0.00,,,0.00,0,Wunderground v.1.15,2013-12-29 02:37:00,
2013-12-28 20:42:00,39.8,31.5,29.98,NNW,342,26.0,32.0,72,0.00,,,0.00,0,Wunderground v.1.15,2013-12-29 02:42:00,
2013-12-28 20:47:00,39.0,30.7,29.98,NNW,333,18.0,33.0,72,0.00,,,0.00,0,Wunderground v.1.15,2013-12-29 02:47:00,
2013-12-28 20:52:00,38.3,30.7,29.99,NNW,341,25.0,31.0,74,0.00,,,0.00,0,Wunderground v.1.15,2013-12-29 02:52:00,
2013-12-28 20:57:00,37.5,30.3,30.00,North,355,26.0,31.0,75,0.00,,,0.00,0,Wunderground v.1.15,2013-12-29 02:57:00,
2013-12-28 21:02:00,36.9,30.0,30.00,NNW,344,21.0,25.0,76,0.00,,,0.00,0,Wunderground v.1.15,2013-12-29 03:02:00,
2013-12-28 21:07:00,36.4,29.6,30.01,NNW,332,32.0,34.0,76,0.00,,,0.00,0,Wunderground v.1.15,2013-12-29 03:07:00,
2013-12-28 21:12:00,35.9,29.4,30.01,North,355,19.0,33.0,77,0.00,,,0.00,0,Wunderground v.1.15,2013-12-29 03:12:00,
2013-12-28 21:17:00,35.1,28.3,30.01,NNW,348,36.0,40.0,76,0.00,,,0.00,0,Wunderground v.1.15,2013-12-29 03:17:00,
2013-12-28 21:22:00,33.9,27.4,30.02,NNW,336,30.0,42.0,77,0.00,,,0.00,0,Wunderground v.1.15,2013-12-29 03:22:00,
2013-12-28 21:27:00,33.3,27.2,30.03,NNW,331,29.0,42.0,78,0.00,,,0.00,0,Wunderground v.1.15,2013-12-29 03:27:00,
2013-12-28 21:32:00,32.5,26.1,30.03,NNW,346,29.0,37.0,77,0.00,,,0.00,0,Wunderground v.1.15,2013-12-29 03:32:00,
2013-12-28 21:37:00,31.7,25.3,30.04,NNW,348,31.0,37.0,77,0.00,,,0.00,0,Wunderground v.1.15,2013-12-29 03:37:00,
2013-12-28 21:42:00,30.9,24.5,30.04,NNW,346,31.0,38.0,77,0.00,,,0.00,0,Wunderground v.1.15,2013-12-29 03:42:00,
2013-12-28 21:47:00,30.2,23.9,30.05,NNW,344,32.0,38.0,77,0.00,,,0.00,0,Wunderground v.1.15,2013-12-29 03:47:00,
2013-12-28 21:52:00,29.9,23.9,30.05,NNW,336,36.0,36.0,78,0.00,,,0.00,0,Wunderground v.1.15,2013-12-29 03:52:00,
2013-12-28 21:57:00,29.7,24.0,30.06,NNW,347,28.0,38.0,79,0.00,,,0.00,0,Wunderground v.1.15,2013-12-29 03:57:00,
2013-12-28 22:02:00,29.6,23.9,30.07,NNW,348,31.0,36.0,79,0.00,,,0.00,0,Wunderground v.1.15,2013-12-29 04:02:00,
2013-12-28 22:07:00,29.4,23.4,30.07,NNW,339,28.0,36.0,78,0.00,,,0.00,0,Wunderground v.1.15,2013-12-29 04:07:00,
2013-12-28 22:12:00,29.2,22.9,30.08,North,350,32.0,34.0,77,0.00,,,0.00,0,Wunderground v.1.15,2013-12-29 04:12:00,
2013-12-28 22:17:00,28.8,22.2,30.08,NNW,338,22.0,35.0,76,0.00,,,0.00,0,Wunderground v.1.15,2013-12-29 04:17:00,
2013-12-28 22:22:00,28.2,21.9,30.09,NNW,342,27.0,35.0,77,0.00,,,0.00,0,Wunderground v.1.15,2013-12-29 04:22:00,
2013-12-28 22:27:00,27.6,21.3,30.09,NNW,336,27.0,35.0,77,0.00,,,0.00,0,Wunderground v.1.15,2013-12-29 04:27:00,
2013-12-28 22:32:00,27.1,20.8,30.09,NNW,339,33.0,33.0,77,0.00,,,0.00,0,Wunderground v.1.15,2013-12-29 04:32:00,
2013-12-28 22:37:00,26.5,19.6,30.09,NW,325,25.0,36.0,75,0.00,,,0.00,0,Wunderground v.1.15,2013-12-29 04:37:00,
2013-12-28 22:42:00,25.8,19.0,30.10,NNW,331,14.0,35.0,75,0.00,,,0.00,0,Wunderground v.1.15,2013-12-29 04:42:00,
2013-12-28 22:47:00,25.1,17.7,30.10,NNW,338,24.0,35.0,73,0.00,,,0.00,0,Wunderground v.1.15,2013-12-29 04:47:00,
2013-12-28 22:52:00,24.3,16.9,30.11,North,355,27.0,33.0,73,0.00,,,0.00,0,Wunderground v.1.15,2013-12-29 04:52:00,
2013-12-28 22:57:00,23.8,16.1,30.11,NNW,341,35.0,37.0,72,0.00,,,0.00,0,Wunderground v.1.15,2013-12-29 04:57:00,
2013-12-28 23:01:00,23.4,15.7,30.12,North,350,24.0,34.0,72,0.00,,,0.00,0,Wunderground v.1.15,2013-12-29 05:01:00,
2013-12-28 23:02:00,23.3,15.6,30.11,NNW,331,30.0,36.0,72,0.00,,,0.00,0,Wunderground v.1.15,2013-12-29 05:02:00,
2013-12-28 23:07:00,22.8,14.8,30.12,NNW,347,22.0,37.0,71,0.00,,,0.00,0,Wunderground v.1.15,2013-12-29 05:07:00,
2013-12-28 23:12:00,22.4,14.1,30.12,NNW,341,27.0,40.0,70,0.00,,,0.00,0,Wunderground v.1.15,2013-12-29 05:12:00,
2013-12-28 23:17:00,22.0,13.4,30.13,NNW,344,27.0,40.0,69,0.00,,,0.00,0,Wunderground v.1.15,2013-12-29 05:17:00,
2013-12-28 23:22:00,21.7,13.1,30.13,NNW,340,31.0,31.0,69,0.00,,,0.00,0,Wunderground v.1.15,2013-12-29 05:22:00,
2013-12-28 23:27:00,21.4,12.5,30.13,North,350,30.0,37.0,68,0.00,,,0.00,0,Wunderground v.1.15,2013-12-29 05:27:00,
2013-12-28 23:32:00,21.1,12.5,30.13,NNW,340,30.0,35.0,69,0.00,,,0.00,0,Wunderground v.1.15,2013-12-29 05:32:00,
2013-12-28 23:37:00,20.9,12.3,30.13,North,350,31.0,35.0,69,0.00,,,0.00,0,Wunderground v.1.15,2013-12-29 05:37:00,
2013-12-28 23:42:00,20.6,11.7,30.13,NNW,345,27.0,36.0,68,0.00,,,0.00,0,Wunderground v.1.15,2013-12-29 05:42:00,
2013-12-28 23:47:00,20.3,11.4,30.13,NNW,348,28.0,41.0,68,0.00,,,0.00,0,Wunderground v.1.15,2013-12-29 05:47:00,
2013-12-28 23:53:00,19.9,10.7,30.13,NNW,342,29.0,38.0,67,0.00,,,0.00,0,Wunderground v.1.15,2013-12-29 05:53:00,
2013-12-28 23:58:00,19.7,10.5,30.13,NNW,343,33.0,38.0,67,0.00,,,0.00,0,Wunderground v.1.15,2013-12-29 05:58:00,